Location: Bartshausen
(51.8454°N, 9.8167°E)
Time: 13:53:38
(UTC+00:00)

USA 238 - Visible Passes

Search period start: 14 February 2026 00:00
Search period end: 24 February 2026 00:00
Orbit: 883 x 1328 km, 63.4° (Epoch: 10 January)

Date Brightness Start Highest point End Pass type
(mag) Time Alt. Az. Time Alt. Az. Time Alt. Az.
14 Feb 5.8 01:25:39 16° ENE 01:25:39 16° ENE 01:27:32 10° ENE visible
14 Feb 3.6 03:13:04 77° NE 03:13:04 77° NE 03:19:27 10° NE visible
14 Feb 4.4 05:00:29 21° WNW 05:04:15 39° NNW 05:10:55 10° NE visible
15 Feb 4.4 02:29:32 45° ENE 02:29:32 45° ENE 02:34:20 10° NE visible
15 Feb 4.1 04:16:57 37° WNW 04:18:52 46° NNW 04:25:41 10° NE visible
16 Feb 5.3 01:45:58 27° ENE 01:45:58 27° ENE 01:49:08 10° NE visible
16 Feb 3.7 03:33:23 58° NW 03:33:36 59° NW 03:40:32 10° NE visible
16 Feb 4.7 05:20:48 14° WNW 05:25:54 33° N 05:32:25 10° NE visible
17 Feb 5.9 01:02:22 16° ENE 01:02:22 16° ENE 01:03:46 10° ENE visible
17 Feb 4.0 02:49:47 58° NNE 02:49:47 58° NNE 02:55:25 10° NE visible
17 Feb 4.5 04:37:12 24° WNW 04:40:24 36° NNW 04:47:00 10° NE visible
18 Feb 4.8 02:06:10 39° NE 02:06:10 39° NE 02:10:19 10° NE visible
18 Feb 4.2 03:53:34 37° NW 03:54:58 42° NNW 04:01:42 10° NE visible
18 Feb 4.9 05:41:36 10° WNW 05:47:38 33° N 05:54:16 10° ENE visible
19 Feb 5.5 01:22:31 24° ENE 01:22:31 24° ENE 01:25:10 10° NE visible
19 Feb 4.0 03:09:55 51° NNW 03:09:55 51° NNW 03:16:30 10° NE visible
19 Feb 4.8 04:57:20 15° WNW 05:02:06 32° N 05:08:37 10° ENE visible
20 Feb 6.0 00:38:51 15° ENE 00:38:51 15° ENE 00:39:55 10° NE visible
20 Feb 4.4 02:26:15 47° NNE 02:26:15 47° NNE 02:31:23 10° NE visible
20 Feb 4.7 04:13:39 24° NW 04:16:34 34° N 04:23:08 10° NE visible
21 Feb 5.0 01:42:34 34° NE 01:42:34 34° NE 01:46:17 10° NE visible
21 Feb 4.4 03:29:59 36° NW 03:31:07 38° NNW 03:37:46 10° NE visible
21 Feb 4.9 05:17:43 10° NW 05:23:51 33° N 05:30:34 10° ENE visible
22 Feb 5.6 00:58:52 22° NE 00:58:52 22° NE 01:01:10 10° NE visible
22 Feb 4.3 02:46:16 44° NNW 02:46:16 44° NNW 02:52:30 10° NE visible
22 Feb 4.9 04:33:41 16° NW 04:38:19 32° N 04:44:53 10° ENE visible
23 Feb 6.1 00:15:09 14° NE 00:15:09 14° NE 00:15:59 10° NE visible
23 Feb 4.6 02:02:33 41° NNE 02:02:33 41° NNE 02:07:21 10° NE visible
23 Feb 4.8 03:49:57 24° NW 03:52:47 33° N 03:59:18 10° NE visible
23 Feb 4.9 05:39:00 10° NW 05:45:30 39° NNE 05:52:40 10° E visible
